St. Cloud, MN

8:55 AM CDT on October 22, 2019 (GMT -0500)
Saint Cloud Regional

Weather History for KSTC - May, 2019

Change the Weather History Date:

Wednesday, May 8, 2019

  Actual Average Record
Temperature  
Mean Temperature 43 °F 54 °F  
Max Temperature 52 °F 67 °F 85 °F (1985)
Min Temperature 33 °F 42 °F 23 °F (1945)
Degree Days  
Heating Degree Days 22 11  
Month to date heating degree days 150 100  
Since 1 July heating degree days 8948 8267  
Cooling Degree Days 0 0  
Month to date cooling degree days 0 0  
Year to date cooling degree days 0 2  
Moisture  
Dew Point 32 °F    
Average Humidity 67    
Maximum Humidity 96    
Minimum Humidity 38    
Precipitation  
Precipitation 0.79 in 0.10 in 1.20 in (1938)
Month to date precipitation 1.30 0.77  
Year to date precipitation 8.65 6.13  
Snow  
Snow 0.40 in 0.00 in 2.80 in (1938)
Month to date snowfall 0.4 0.0  
Since 1 July snowfall 68.9 45.7  
Snow Depth 0.00 in    
Sea Level Pressure  
Sea Level Pressure 30.00 in    
Wind  
Wind Speed 12 mph (NE)    
Max Wind Speed 21 mph    
Max Gust Speed 35 mph    
Visibility 6 miles    
Events Rain , Snow    
T = Trace of Precipitation, MM = Missing Value Source: NWS Daily Summary

Daily Weather History Graph

Daily Weather History Graph

Search for Another Location

Airport or City:

Astronomy

May. 08, 2019 Rise Set
Actual Time 5:54 AM CDT 8:31 PM CDT
Civil Twilight 5:20 AM CDT 9:05 PM CDT
Nautical Twilight 4:38 AM CDT 9:48 PM CDT
Astronomical Twilight 3:49 AM CDT 10:37 PM CDT
Moon 8:47 AM CDT (5/8) No Moon Set
Length of Visible Light 15h 44m
Length of Day
14h 37m
Waxing Crescent, 16% of the Moon is Illuminated
May 8
Waxing Crescent
May 11
First Quarter
May 18
Full
May 26
Last Quarter
Jun 3
New

Hourly Weather History & Observations

Time (CDT) Temp. Windchill Dew Point Humidity Pressure Visibility Wind Dir Wind Speed Gust Speed Precip Events Conditions
12:53 AM 52.0 °F - 27.0 °F 38% 30.20 in 10.0 mi NE 6.9 mph - N/A   Overcast
1:53 AM 48.9 °F - 28.9 °F 46% 30.18 in 10.0 mi NE 10.4 mph - N/A   Overcast
2:53 AM 48.0 °F - 30.0 °F 50% 30.18 in 10.0 mi ENE 8.1 mph - N/A   Overcast
3:53 AM 46.9 °F - 30.0 °F 52% 30.17 in 10.0 mi ENE 9.2 mph - N/A   Overcast
4:53 AM 46.9 °F - 30.0 °F 52% 30.17 in 10.0 mi ENE 6.9 mph - 0.00 in   Overcast
5:53 AM 46.0 °F 42.5 °F 30.0 °F 54% 30.17 in 10.0 mi ENE 6.9 mph - N/A   Overcast
6:53 AM 46.9 °F - 30.9 °F 54% 30.16 in 10.0 mi East 9.2 mph - N/A   Overcast
7:53 AM 46.9 °F - 32.0 °F 56% 30.15 in 10.0 mi ENE 8.1 mph - N/A   Overcast
8:53 AM 46.9 °F - 30.9 °F 54% 30.13 in 10.0 mi ENE 9.2 mph - N/A   Overcast
9:53 AM 48.0 °F - 28.9 °F 48% 30.11 in 10.0 mi ENE 8.1 mph 24.2 mph N/A   Overcast
10:53 AM 48.9 °F - 27.0 °F 43% 30.09 in 10.0 mi ENE 11.5 mph 20.7 mph N/A   Overcast
11:53 AM 48.9 °F - 27.0 °F 43% 30.07 in 10.0 mi East 11.5 mph 25.3 mph N/A   Overcast
12:53 PM 43.0 °F 36.0 °F 34.0 °F 71% 30.04 in 8.0 mi NE 13.8 mph 28.8 mph 0.01 in Rain Light Rain
1:37 PM 41.0 °F 32.5 °F 37.0 °F 86% 29.99 in 2.0 mi NE 17.3 mph 34.5 mph 0.06 in Rain Rain
1:53 PM 41.0 °F 33.1 °F 37.0 °F 86% 30.02 in 4.0 mi NE 15.0 mph 26.5 mph 0.09 in Rain Light Rain
2:49 PM 39.2 °F 29.6 °F 37.4 °F 93% 29.94 in 6.0 mi NNE 19.6 mph 31.1 mph 0.10 in Rain Light Rain
2:53 PM 39.9 °F 30.2 °F 37.0 °F 89% 29.99 in 5.0 mi NE 20.7 mph 33.4 mph 0.10 in Rain Rain
3:53 PM 39.0 °F 30.6 °F 36.0 °F 89% 29.96 in 7.0 mi NNE 15.0 mph 31.1 mph 0.10 in Rain Light Rain
4:02 PM 39.0 °F 31.0 °F 36.0 °F 89% 29.91 in 6.0 mi NNE 13.8 mph 32.2 mph 0.01 in Rain Light Rain
4:50 PM 37.4 °F 28.9 °F 35.6 °F 93% 29.91 in 4.0 mi NNE 13.8 mph 25.3 mph 0.07 in Rain Rain
4:53 PM 37.0 °F 28.9 °F 35.1 °F 93% 29.96 in 5.0 mi NNE 12.7 mph 25.3 mph 0.08 in Rain Rain
5:07 PM 37.0 °F 29.3 °F 34.0 °F 89% 29.91 in 5.0 mi NE 11.5 mph 23.0 mph 0.02 in Rain Rain
5:53 PM 35.1 °F 26.4 °F 33.1 °F 92% 29.96 in 3.0 mi NNE 12.7 mph 29.9 mph 0.12 in Snow Light Snow
6:06 PM 34.0 °F 24.6 °F 32.0 °F 92% 29.91 in 2.0 mi NNE 13.8 mph 27.6 mph 0.01 in Snow Light Snow
6:29 PM 34.0 °F 24.2 °F 32.0 °F 92% 29.92 in 1.8 mi NNE 15.0 mph 25.3 mph 0.03 in Snow Light Snow
6:53 PM 33.1 °F 23.4 °F 32.0 °F 96% 29.96 in 0.8 mi NNE 13.8 mph 24.2 mph 0.06 in Snow Light Snow
7:32 PM 33.1 °F 22.6 °F 32.0 °F 96% 29.90 in 1.2 mi NNE 16.1 mph 28.8 mph 0.05 in Snow Light Snow
7:37 PM 34.0 °F 24.6 °F 32.0 °F 92% 29.89 in 2.0 mi NNE 13.8 mph 28.8 mph 0.05 in Snow Light Snow
7:42 PM 34.0 °F 22.7 °F 32.0 °F 92% 29.89 in 3.0 mi NNE 19.6 mph 31.1 mph 0.05 in Snow Light Snow
7:53 PM 34.0 °F 23.4 °F 32.0 °F 92% 29.94 in 4.0 mi NNE 17.3 mph 32.2 mph 0.06 in Snow Light Snow
8:53 PM 34.0 °F 24.2 °F 32.0 °F 92% 29.92 in 6.0 mi NNE 15.0 mph 29.9 mph 0.02 in Snow Light Snow
9:53 PM 35.1 °F 25.2 °F 33.1 °F 92% 29.92 in 8.0 mi NNE 16.1 mph 27.6 mph 0.02 in Snow Light Snow
10:39 PM 34.0 °F 24.2 °F 32.0 °F 92% 29.88 in 2.5 mi North 15.0 mph 26.5 mph 0.02 in Snow Light Snow
10:53 PM 34.0 °F 24.6 °F 32.0 °F 92% 29.92 in 3.0 mi North 13.8 mph 26.5 mph 0.03 in Snow Light Snow
11:04 PM 34.0 °F 23.4 °F 32.0 °F 92% 29.87 in 2.5 mi North 17.3 mph 25.3 mph 0.01 in Snow Light Snow
11:11 PM 33.1 °F 23.0 °F 32.0 °F 96% 29.87 in 2.0 mi North 15.0 mph 25.3 mph 0.02 in Snow Light Snow
11:24 PM 33.1 °F 23.4 °F 32.0 °F 96% 29.87 in 3.0 mi North 13.8 mph 24.2 mph 0.03 in Snow Light Snow
11:53 PM 33.1 °F 23.4 °F 32.0 °F 96% 29.92 in 2.5 mi North 13.8 mph 27.6 mph 0.04 in Snow Light Snow